Back to catalog

FENGYUN 1C DEB

AliveSSO
NORAD 31254·DEBRIS·🇨🇳 China

Launched May 10, 1999 from Taiyuan Satellite Launch Center

Loading…

Next Passes (next 24 hours)

TLE

FreshSource: Space-Track

Epoch: Sep 14, 2026, 09:10 UTC

1 31254U 99025BML 26257.38233976  .00000856  00000-0  26643-3 0  9996
2 31254  98.4269 306.8952 0151193  99.7220 324.3364 14.37056588 13553

Track FENGYUN 1C DEB in real time with AllMySat

Download on the App Store